Terug naar catalogus

STARLINK-35780

ActiefCommunicatieVLEO
NORAD 66974·PAYLOAD·🇺🇸 United States

Gelanceerd Dec 8, 2025 vanaf Cape Canaveral Space Force Station

Loading…

Volgende Passages (komende 24 uur)

TLE

VersSource: CelesTrak SupGP

Epoch: Sep 15, 2026, 03:01 UTC

1 66974C 25288R   26258.12618056 -.00011184  00000+0 -40507-3 0  2582
2 66974  43.0020  33.2015 0001520 268.5136 106.6080 15.27585996    15

Volg STARLINK-35780 in realtime met AllMySat

Download on the App Store